Temperature
20 20 20 21 17 14 15 15 14 14 13 13 12 12 10 10 11 10 8 8 8 9 9 9 8 8 7 7 7 6 6 5 5 4 4 4 3 3 3 3 3 3 3 3 3 3 4 4 5
20 20 21 20 15 15 15 15 14 13 13 12 12 11 9 8 9 9 8 8 8 9 9 9 8 8 8 7 7 6 5 5 4 4 4 3 3 3 3 3 3 2 2 2 2 2 3 3 3
21 21 21 16 15 15 15 13 12 13 13 13 11 10 9 8 9 8 9 8 8 9 9 9 8 8 8 7 7 6 5 5 4 4 3 3 3 3 3 3 2 2 2 2 2 2 2 2 2
21 21 20 15 16 15 14 12 12 13 13 13 11 9 8 9 9 9 9 8 8 8 9 9 8 8 8 7 7 6 5 5 4 3 3 3 3 2 2 2 2 2 2 1 1 1 1 2 2
21 21 15 14 15 13 12 13 13 13 12 12 11 8 8 9 8 8 9 8 8 8 8 8 8 8 7 7 7 6 5 4 4 3 3 3 3 2 2 2 2 2 2 2 2 1 1 1 1
21 18 15 14 14 13 13 14 14 13 12 12 11 9 8 8 8 8 9 8 8 8 8 8 8 7 7 7 6 6 5 5 4 4 4 4 4 3 3 3 3 2 2 2 2 2 1 1 1
21 14 14 13 13 13 13 14 14 13 12 12 12 9 7 8 8 8 8 8 8 8 8 8 7 7 7 7 7 6 6 6 5 5 5 5 4 4 4 4 3 3 3 2 2 1 1 1 2
20 14 14 13 13 13 15 14 14 14 13 13 12 11 9 10 8 8 8 8 8 8 8 7 7 7 7 7 6 6 6 6 5 5 5 4 4 4 4 4 3 3 2 2 1 1 0 1 1
20 14 14 13 13 14 14 14 13 14 13 12 12 12 12 12 9 8 7 7 7 7 7 7 7 7 7 6 6 6 6 5 5 5 4 4 4 3 3 3 2 2 1 1 0 0 0 0 0
19 14 15 15 14 13 14 14 13 13 12 12 12 12 12 11 10 9 9 8 8 8 7 7 7 6 6 6 6 6 5 5 5 4 4 3 3 3 2 2 1 1 0 -0 -1 -1 -1 -2 -1
15 13 14 14 15 14 14 14 14 13 10 12 13 13 12 11 10 10 9 9 8 8 7 7 6 6 6 6 5 5 5 5 4 4 3 3 2 2 1 1 -0 -1 -1 -2 -2 -3 -3 -4 -4
14 13 14 14 14 14 14 14 13 13 14 14 14 14 13 12 11 11 10 9 8 7 7 7 6 6 6 6 5 5 5 4 4 3 3 2 2 1 0 -1 -1 -2 -3 -4 -4 -5 -5 -5 -5
13 13 14 14 15 14 14 13 13 13 14 13 13 13 12 12 12 11 10 8 7 7 7 6 6 6 6 5 5 5 4 4 3 2 2 1 1 -0 -1 -2 -2 -3 -4 -4 -5 -5 -5 -6 -6
13 13 13 14 14 14 13 13 13 14 14 13 13 13 13 12 12 11 9 8 8 7 7 7 6 6 6 5 5 4 4 3 3 2 1 0 -0 -1 -2 -2 -3 -3 -4 -4 -5 -6 -6 -6 -7
14 12 12 13 13 13 13 11 11 14 14 13 13 13 12 12 11 11 10 9 9 8 7 7 6 6 6 5 4 4 4 3 2 1 1 -0 -1 -1 -2 -2 -3 -3 -4 -5 -5 -6 -6 -7 -7
14 13 13 13 12 12 11 12 13 15 13 13 13 12 12 12 11 11 10 9 9 8 7 7 7 6 6 5 4 4 3 3 2 1 0 -0 -1 -1 -2 -2 -3 -4 -4 -5 -6 -6 -7 -7 -8
14 14 14 14 11 10 10 11 12 14 13 12 13 12 12 12 11 11 10 9 8 8 7 7 7 6 5 5 4 4 3 2 2 1 0 -0 -1 -2 -2 -2 -3 -4 -4 -5 -6 -7 -8 -8 -8
16 14 15 14 12 10 9 10 11 12 12 12 13 13 12 12 13 12 11 9 9 8 7 7 7 6 5 5 4 4 3 2 1 1 0 -0 -1 -2 -2 -3 -3 -4 -5 -6 -7 -8 -8 -9 -9
16 16 16 15 13 11 10 11 12 13 11 10 11 12 13 13 14 12 11 10 9 8 8 7 7 6 6 5 4 4 3 2 1 1 0 -0 -1 -2 -2 -3 -4 -5 -5 -7 -8 -8 -9 -9 -10
16 16 16 15 13 12 11 11 12 12 11 11 11 13 14 14 14 13 11 10 9 9 8 8 7 7 6 5 4 4 3 2 2 1 0 -1 -1 -2 -3 -3 -4 -5 -6 -7 -8 -9 -9 -10 -10
16 16 15 15 14 12 12 12 13 13 12 12 13 14 15 15 15 14 13 12 11 10 9 9 8 7 6 5 4 3 3 2 2 1 0 -1 -1 -2 -3 -4 -4 -5 -7 -8 -9 -9 -10 -10 -11
15 15 15 15 13 11 13 11 13 13 12 11 13 14 15 16 16 15 14 13 12 12 11 9 8 7 6 5 4 3 3 2 1 1 0 -1 -1 -2 -3 -4 -5 -6 -7 -8 -9 -9 -10 -11 -11
15 15 14 14 13 12 11 12 13 13 13 13 13 16 18 18 17 16 16 15 14 13 11 10 9 7 6 5 4 3 3 2 1 1 -0 -1 -2 -2 -3 -4 -5 -6 -7 -8 -9 -10 -10 -11 -11
14 14 13 11 10 12 11 11 12 12 13 14 15 18 20 19 18 17 16 15 14 13 11 10 9 7 6 5 4 3 3 2 1 1 -0 -1 -2 -3 -3 -4 -5 -6 -7 -8 -9 -10 -10 -11 -11
14 13 13 13 12 12 12 12 13 14 12 13 16 20 20 20 19 17 16 15 14 13 12 11 9 8 6 5 4 3 3 2 1 0 -0 -1 -2 -2 -3 -4 -5 -6 -7 -8 -9 -9 -10 -11 -11
12 13 13 14 12 12 13 12 14 14 14 16 18 20 20 20 19 18 17 16 15 14 13 11 10 8 7 5 4 3 2 2 1 0 -1 -1 -2 -3 -3 -4 -5 -6 -7 -8 -9 -9 -10 -10 -10
14 12 12 12 12 11 12 11 12 14 14 14 16 18 19 19 19 18 17 16 15 14 13 12 10 9 7 5 4 3 2 2 1 -0 -1 -1 -2 -3 -4 -5 -5 -6 -7 -8 -9 -9 -9 -10 -10
13 12 10 11 12 11 11 11 13 15 14 13 12 15 19 19 19 18 17 17 16 14 13 11 10 8 7 5 4 3 2 2 1 -0 -1 -2 -2 -3 -4 -5 -6 -6 -7 -8 -8 -9 -9 -9 -9
11 12 11 10 10 10 11 13 13 14 14 13 14 17 19 20 19 19 18 17 16 14 13 11 9 8 6 5 3 3 2 1 0 -0 -1 -2 -2 -3 -4 -5 -5 -6 -7 -8 -8 -8 -9 -9 -9
11 11 10 11 11 9 8 13 14 12 12 13 15 17 19 20 19 19 18 17 15 14 13 11 10 8 6 5 3 3 2 1 0 -0 -1 -2 -3 -3 -4 -5 -5 -6 -7 -8 -8 -8 -8 -9 -9
Wind_Speed
4 6 4 4 6 6 3 3 5 5 3 3 4 9 8 6 4 5 6 10 15 13 9 4 7 8 9 10 11 12 13 14 15 16 17 17 18 18 19 20 21 22 22 23 24 24 25 26 26
3 4 5 5 5 3 3 4 6 3 7 7 6 6 6 3 3 8 6 11 17 13 9 5 8 8 9 10 11 12 13 13 14 15 16 17 18 18 19 20 21 21 22 23 23 24 24 25 26
1 3 5 5 5 5 7 5 6 4 5 5 5 5 5 7 7 8 8 16 17 13 9 5 8 8 9 9 10 10 12 12 13 15 16 17 18 18 19 20 21 21 22 23 23 23 24 25 25
4 5 6 6 3 2 5 6 7 8 4 5 6 5 3 2 8 8 12 19 16 13 9 6 8 8 8 8 8 9 10 11 12 14 15 17 17 18 19 19 20 21 22 23 23 24 24 25 25
4 5 6 5 2 3 2 8 8 7 7 4 6 6 2 1 6 11 14 17 14 13 9 6 8 6 6 6 7 7 9 11 12 14 15 16 17 17 18 19 20 21 22 23 24 24 25 25 25
5 5 5 4 3 2 3 6 7 6 6 6 8 8 5 4 9 11 13 15 17 15 10 6 7 5 5 5 5 6 8 10 12 13 15 16 17 17 18 20 21 22 23 24 24 25 25 25 25
5 5 5 8 6 5 6 6 9 7 7 9 11 8 4 6 9 10 12 15 16 15 12 9 8 6 4 4 4 6 7 9 11 12 14 15 17 18 19 21 22 23 23 24 24 25 25 25 25
5 6 6 6 7 7 7 7 6 8 6 7 10 10 8 11 10 10 9 10 12 14 14 12 9 6 4 3 4 5 6 8 10 11 13 14 17 18 20 22 23 23 23 23 23 24 24 25 25
4 5 5 9 9 7 8 6 3 3 6 5 4 6 7 16 14 11 7 6 7 8 11 13 10 7 4 3 4 5 5 7 8 9 11 12 16 18 19 21 21 21 21 21 22 23 24 24 24
5 5 8 5 6 9 9 7 9 6 5 4 1 2 8 18 17 15 12 11 10 10 8 12 12 9 6 3 2 3 4 5 7 7 9 11 14 15 16 18 18 19 19 19 20 22 21 21 20
5 6 4 1 2 9 9 8 8 10 9 11 10 9 15 17 17 17 15 13 11 11 9 12 14 11 8 4 2 1 2 3 4 5 6 8 11 12 14 15 16 17 16 16 17 18 17 18 18
6 3 2 1 2 7 10 9 6 10 11 9 12 17 19 20 21 20 17 12 11 11 10 11 15 13 10 6 4 3 2 1 2 3 3 5 7 8 8 9 11 12 12 13 13 13 16 16 17
4 2 2 3 5 6 7 7 6 9 10 4 11 17 20 21 19 16 13 12 12 13 12 9 16 15 12 8 6 4 3 2 1 0 1 2 2 2 3 5 7 9 10 10 11 13 14 14 14
4 4 3 4 4 2 4 4 5 11 7 9 14 18 19 20 19 15 12 13 15 15 14 10 14 16 13 10 8 6 5 4 3 3 3 3 2 1 2 4 6 9 10 10 11 13 12 11 12
5 5 3 2 0 0 2 7 10 8 9 11 13 16 17 17 17 17 14 14 16 16 14 12 14 16 14 11 9 7 6 5 5 6 6 6 5 4 4 4 6 9 10 11 12 12 10 11 12
4 3 3 5 6 3 5 10 9 8 12 13 13 13 15 17 17 16 14 13 15 15 15 14 14 15 14 12 10 7 6 6 6 7 7 7 6 5 5 5 7 9 10 10 9 7 5 6 6
1 2 5 4 7 6 7 11 7 6 12 13 13 14 15 15 16 16 15 15 17 17 17 15 11 12 13 13 11 8 6 6 6 7 8 9 8 7 6 7 8 9 9 8 9 6 4 7 8
4 5 6 7 6 8 8 14 13 7 12 14 13 13 15 18 21 16 15 15 16 17 17 16 13 12 13 11 7 5 4 5 6 7 9 10 9 8 7 7 8 8 7 5 5 6 6 6 7
4 5 6 6 5 8 11 17 19 9 12 15 13 14 17 21 17 14 15 15 15 16 16 17 14 12 9 5 4 3 3 3 4 8 10 10 9 8 8 7 8 7 5 5 6 5 6 5 5
4 4 5 4 3 6 8 14 15 10 10 13 16 18 19 17 13 14 14 15 18 20 19 18 17 15 12 7 4 3 4 3 5 7 7 9 9 8 7 7 7 7 5 5 6 5 4 5 5
4 4 4 4 3 4 6 11 9 6 6 9 11 13 13 18 18 16 17 19 19 21 22 20 18 16 13 9 5 3 3 1 2 3 4 8 8 8 8 8 8 8 5 5 6 6 6 6 5
5 3 1 1 2 5 3 6 9 7 7 9 13 13 16 17 16 15 17 18 21 22 19 18 17 15 13 11 9 8 6 6 6 4 4 7 8 8 8 9 9 8 7 5 6 6 6 6 8
5 2 1 0 1 4 4 4 11 4 8 13 14 15 18 17 16 16 18 20 20 18 18 16 16 15 14 13 12 9 7 6 4 4 5 5 7 8 9 10 9 9 8 8 8 7 7 6 7
3 4 3 4 3 4 7 7 9 7 10 10 11 13 15 15 14 15 13 12 13 13 15 15 17 16 15 14 12 11 10 9 7 6 6 5 4 6 9 10 10 11 10 10 9 8 8 8 8
3 4 4 4 2 7 4 6 11 12 11 11 12 13 14 13 12 12 12 14 15 17 18 17 18 16 15 15 13 12 11 10 10 8 7 6 5 4 7 9 10 10 12 13 12 8 8 8 9
6 7 6 5 5 6 5 8 11 11 10 11 11 10 10 11 11 13 14 15 16 18 19 19 20 16 17 16 14 11 11 8 7 9 7 7 6 6 9 10 11 12 13 13 11 7 9 8 9
5 6 7 5 3 6 8 9 12 8 7 8 10 9 12 12 12 13 12 13 15 18 21 22 21 17 17 16 13 11 11 10 9 9 8 6 6 7 10 10 10 11 12 12 10 8 9 9 10
3 5 5 5 4 7 8 8 7 9 10 10 11 13 14 12 11 11 11 14 15 16 17 17 18 18 14 15 14 12 11 10 9 8 9 8 7 9 8 8 8 9 10 10 8 9 10 10 11
6 5 6 5 4 6 6 9 8 10 10 12 16 15 15 14 14 14 13 13 12 12 14 16 16 15 14 15 13 11 11 10 9 8 9 8 7 7 7 7 8 8 9 8 9 11 10 12 13
8 9 9 6 7 6 5 11 9 11 11 11 14 13 12 12 11 11 11 10 12 15 15 17 17 16 16 15 13 12 10 9 9 9 9 8 8 7 7 7 8 9 9 9 10 12 13 12 15
Wind_Direction
79 102 74 59 58 55 106 158 144 119 93 69 84 99 107 111 147 157 152 136 124 111 102 82 90 78 69 61 53 46 40 36 33 29 25 23 23 23 22 20 17 15 13 11 9 7 5 4 1
82 109 59 62 83 101 213 167 139 151 146 134 97 91 91 92 99 122 152 141 124 117 115 107 100 86 74 64 54 46 40 36 33 29 25 24 23 22 22 19 16 14 13 11 9 7 6 4 1
54 96 82 73 93 173 197 172 152 133 131 117 82 69 115 149 145 160 161 139 125 122 122 119 107 93 78 65 56 47 40 35 33 29 26 24 23 21 21 18 15 14 13 11 9 8 7 4 2
66 56 55 69 89 311 187 173 154 129 101 82 106 96 87 135 167 163 144 136 128 131 131 127 114 101 86 69 57 50 41 35 34 31 28 26 23 21 22 18 15 14 13 11 9 8 7 6 3
65 81 66 64 37 355 126 149 143 133 146 121 122 135 145 354 136 134 140 140 139 147 145 139 120 112 100 80 59 51 43 37 36 33 30 28 24 21 23 18 15 14 12 11 9 7 6 5 3
61 71 92 154 155 104 167 173 145 131 147 135 133 149 196 169 142 146 147 147 149 154 151 123 116 104 96 85 65 51 47 40 37 33 31 29 24 21 22 17 15 13 11 9 7 5 4 2 0
95 89 130 161 161 185 202 175 157 153 167 177 153 146 196 205 184 156 147 148 150 150 143 125 111 99 82 61 56 51 47 41 36 31 30 28 23 21 21 16 13 11 9 7 4 3 2 0 358
113 101 110 162 174 211 187 161 164 160 184 155 144 156 201 201 186 151 144 147 149 148 144 139 130 116 96 68 50 52 46 39 34 27 26 27 24 22 20 14 11 8 5 3 1 360 359 358 356
89 86 166 195 186 199 181 148 116 134 138 138 173 195 200 159 159 147 150 158 162 157 155 151 142 133 120 106 67 54 47 38 37 29 26 30 30 26 19 12 8 5 2 0 358 356 357 356 353
65 140 190 198 201 176 177 159 155 140 164 184 172 26 133 150 165 170 176 180 178 174 176 166 156 150 139 125 96 62 66 56 43 36 37 37 33 26 19 11 5 2 359 358 355 353 353 351 346
71 145 161 350 170 151 152 159 163 153 206 213 198 175 156 165 176 185 189 186 182 177 178 177 167 161 156 155 163 101 98 71 43 36 38 36 33 27 20 11 4 360 355 354 349 348 344 339 336
82 60 118 20 124 144 158 164 191 200 217 215 188 166 167 177 187 193 195 190 176 176 182 180 172 167 169 176 198 190 162 115 39 34 40 40 38 27 15 3 353 347 343 338 336 333 330 328 328
99 128 45 45 92 134 147 178 219 237 231 195 153 164 179 188 195 200 198 187 175 181 182 181 176 173 174 181 200 195 197 195 221 199 103 78 68 25 349 336 333 331 329 326 325 325 322 322 323
113 92 67 40 50 63 154 229 253 253 187 154 163 181 191 196 198 199 197 188 183 183 182 179 177 176 174 179 193 206 211 216 218 216 203 185 181 226 279 301 312 318 323 323 322 320 316 315 316
94 79 11 295 235 330 68 276 239 241 158 175 189 195 200 206 203 204 201 190 187 185 181 179 179 176 175 180 193 205 218 221 219 219 210 204 211 228 249 271 293 308 319 322 323 318 320 321 321
93 65 292 240 193 160 158 260 258 199 173 196 204 206 208 213 212 211 203 191 187 183 181 182 179 176 176 180 191 204 216 216 220 220 216 218 225 236 246 262 283 303 311 317 315 310 313 308 307
26 280 269 257 192 169 196 250 270 180 189 208 211 212 215 218 220 216 206 195 188 185 183 183 176 174 177 181 187 193 202 209 219 224 227 230 234 242 251 264 282 297 302 308 315 327 306 307 309
235 228 255 252 207 179 222 257 268 213 210 221 219 218 220 223 223 214 208 198 190 186 184 182 177 176 173 171 170 174 191 211 228 238 240 238 236 247 256 269 282 293 294 295 296 298 298 293 297
225 233 261 259 190 190 237 262 273 235 216 231 230 225 226 230 227 213 206 196 187 185 184 183 180 178 167 159 165 177 203 215 238 250 245 234 237 250 262 273 285 289 279 279 289 294 299 296 295
238 273 274 282 197 208 270 276 271 236 213 223 226 227 229 234 227 215 204 195 192 190 189 187 186 182 180 175 166 167 169 194 225 237 230 230 240 254 263 266 272 279 278 285 291 293 289 294 311
263 243 251 273 340 264 303 300 280 254 221 233 229 229 230 229 228 217 207 201 197 196 193 192 188 184 182 171 151 140 136 180 223 223 227 236 248 261 265 272 273 275 267 270 279 282 278 292 293
253 211 193 289 335 291 221 287 286 260 257 248 239 232 235 233 228 218 210 205 203 201 193 189 185 182 179 170 170 169 182 199 213 211 221 244 256 259 265 271 273 271 266 260 273 290 274 280 294
217 175 189 188 207 298 235 220 280 272 257 255 243 234 236 234 225 220 213 210 206 195 189 186 181 181 178 177 177 178 192 202 210 218 235 245 252 255 264 270 269 264 262 263 267 273 270 264 273
122 65 57 52 73 284 225 189 273 234 218 239 241 232 231 231 225 224 216 203 195 184 183 181 181 183 181 181 181 185 192 199 208 221 233 241 242 252 260 266 262 261 262 263 265 262 262 262 266
109 88 349 325 324 256 232 212 249 245 223 218 223 228 228 225 220 218 207 197 191 185 186 185 185 186 185 185 188 192 194 195 206 215 224 230 237 243 250 258 258 260 262 265 265 259 259 259 263
189 159 179 238 253 286 288 238 254 257 250 234 234 236 234 227 219 216 208 199 194 190 188 187 190 189 187 190 195 194 192 195 206 211 212 220 228 238 249 253 255 258 264 270 267 263 262 265 262
188 208 183 162 258 269 267 277 296 268 261 235 232 237 238 232 224 219 209 199 194 192 192 191 191 190 191 193 193 194 193 196 203 208 212 221 229 244 248 248 252 260 264 264 264 262 263 266 268
210 155 117 156 232 263 279 271 253 271 253 243 238 236 241 239 234 226 214 206 200 197 194 192 192 193 190 191 194 199 197 199 200 203 215 222 231 243 249 251 253 258 262 263 259 264 266 267 271
168 192 190 185 195 202 265 266 231 241 247 239 237 235 236 234 231 227 220 208 197 189 190 193 194 193 191 193 194 193 194 196 197 206 217 224 231 237 241 247 252 257 261 260 262 266 269 269 274
188 199 168 186 236 214 234 266 261 254 263 251 251 250 245 240 236 228 214 195 192 195 195 197 197 197 197 193 192 196 192 191 199 211 219 222 230 235 241 248 256 262 266 264 264 271 277 273 276
Height
1565 1565 1567 1568 1572 1586 1592 1590 1589 1591 1593 1594 1594 1593 1595 1598 1602 1609 1606 1606 1609 1611 1612 1612 1611 1611 1610 1608 1607 1605 1603 1601 1599 1597 1595 1593 1591 1589 1586 1583 1580 1577 1574 1572 1569 1566 1563 1560 1557
1565 1566 1568 1569 1579 1596 1594 1589 1590 1590 1592 1594 1594 1595 1596 1597 1599 1600 1602 1605 1608 1610 1611 1610 1610 1609 1608 1607 1606 1604 1602 1601 1599 1597 1594 1593 1590 1588 1585 1582 1579 1577 1574 1571 1568 1566 1563 1560 1557
1566 1566 1568 1571 1583 1591 1590 1589 1590 1591 1592 1593 1594 1596 1596 1597 1598 1599 1601 1604 1607 1609 1609 1609 1609 1608 1607 1606 1605 1603 1601 1600 1598 1596 1593 1592 1589 1587 1584 1581 1578 1576 1573 1570 1567 1565 1562 1558 1556
1566 1567 1569 1578 1586 1586 1585 1587 1587 1590 1592 1593 1594 1596 1597 1598 1599 1600 1601 1604 1606 1607 1608 1608 1607 1607 1606 1605 1603 1602 1600 1598 1597 1594 1592 1590 1587 1585 1582 1579 1577 1574 1572 1569 1566 1563 1560 1557 1554
1565 1566 1576 1587 1588 1587 1586 1586 1587 1588 1591 1592 1593 1595 1596 1597 1598 1599 1601 1603 1605 1606 1606 1606 1606 1606 1605 1603 1602 1600 1599 1597 1595 1592 1590 1587 1584 1582 1580 1577 1575 1572 1570 1567 1564 1561 1558 1555 1551
1565 1566 1584 1592 1590 1588 1587 1586 1587 1588 1591 1592 1593 1594 1594 1596 1596 1598 1600 1602 1603 1604 1605 1604 1604 1604 1603 1602 1601 1599 1597 1595 1592 1590 1587 1585 1582 1580 1578 1575 1573 1571 1568 1565 1562 1559 1556 1553 1549
1565 1571 1583 1589 1591 1589 1587 1586 1587 1588 1589 1590 1591 1592 1593 1593 1595 1597 1599 1600 1602 1602 1603 1603 1603 1602 1602 1601 1599 1597 1595 1593 1591 1588 1586 1583 1581 1579 1576 1574 1572 1569 1566 1563 1561 1557 1554 1550 1546
1565 1571 1583 1588 1588 1586 1583 1585 1585 1586 1587 1588 1589 1589 1588 1589 1592 1595 1597 1598 1599 1599 1600 1601 1601 1601 1600 1599 1597 1596 1594 1592 1589 1587 1584 1582 1580 1577 1575 1573 1570 1568 1565 1561 1558 1554 1551 1547 1543
1565 1575 1583 1584 1584 1581 1581 1582 1584 1585 1585 1586 1585 1585 1586 1587 1589 1591 1593 1594 1595 1595 1597 1598 1598 1598 1598 1597 1595 1594 1592 1590 1587 1585 1583 1580 1578 1576 1573 1571 1568 1565 1561 1558 1554 1551 1547 1543 1540
1564 1576 1576 1575 1575 1575 1577 1578 1581 1583 1583 1583 1582 1582 1583 1583 1585 1586 1587 1588 1589 1591 1593 1595 1596 1596 1595 1594 1593 1591 1590 1587 1585 1583 1580 1578 1575 1573 1570 1567 1564 1561 1557 1554 1550 1546 1542 1539 1535
1567 1573 1572 1572 1571 1572 1575 1578 1579 1580 1580 1577 1576 1578 1579 1580 1581 1582 1583 1585 1586 1588 1590 1592 1593 1593 1593 1592 1590 1589 1587 1584 1582 1580 1577 1575 1573 1570 1567 1564 1560 1556 1552 1548 1544 1541 1537 1533 1530
1570 1572 1572 1572 1572 1573 1574 1576 1577 1575 1572 1573 1574 1575 1576 1576 1576 1577 1579 1581 1582 1583 1585 1588 1590 1590 1590 1589 1587 1586 1584 1581 1579 1576 1574 1572 1569 1566 1562 1559 1555 1551 1546 1542 1539 1535 1531 1528 1525
1572 1573 1573 1573 1573 1574 1575 1575 1575 1570 1570 1571 1571 1572 1572 1572 1573 1575 1577 1578 1579 1579 1581 1583 1585 1586 1586 1585 1584 1582 1580 1578 1575 1572 1570 1567 1564 1561 1558 1554 1550 1546 1541 1537 1534 1530 1527 1523 1520
1573 1574 1574 1574 1574 1575 1576 1575 1574 1565 1567 1568 1568 1567 1568 1568 1570 1571 1573 1573 1574 1575 1577 1579 1581 1582 1582 1581 1580 1578 1576 1574 1571 1568 1565 1562 1560 1557 1553 1550 1546 1542 1538 1534 1530 1526 1522 1519 1516
1574 1576 1577 1575 1575 1576 1577 1576 1568 1562 1563 1563 1563 1564 1564 1565 1566 1567 1568 1569 1570 1572 1574 1575 1576 1577 1577 1577 1575 1574 1572 1570 1567 1564 1561 1558 1556 1553 1549 1546 1542 1538 1534 1530 1526 1522 1519 1515 1512
1575 1578 1579 1574 1574 1575 1580 1575 1559 1559 1559 1559 1559 1560 1560 1561 1562 1563 1565 1566 1567 1568 1569 1570 1571 1572 1572 1572 1571 1569 1567 1565 1562 1560 1557 1554 1552 1549 1545 1542 1538 1534 1530 1526 1522 1518 1514 1511 1507
1578 1581 1578 1572 1572 1573 1577 1570 1556 1555 1555 1555 1555 1555 1555 1556 1557 1558 1560 1561 1562 1563 1564 1565 1565 1566 1567 1567 1566 1565 1563 1560 1558 1556 1553 1550 1548 1545 1541 1538 1534 1530 1526 1522 1518 1514 1511 1506 1503
1575 1579 1575 1571 1568 1572 1573 1564 1552 1553 1552 1550 1550 1550 1550 1550 1550 1553 1555 1556 1557 1558 1559 1559 1559 1560 1561 1562 1561 1560 1558 1556 1553 1551 1549 1546 1544 1541 1537 1534 1530 1526 1522 1518 1515 1511 1507 1504 1499
1568 1570 1570 1565 1563 1568 1567 1559 1547 1546 1547 1545 1544 1544 1544 1542 1545 1548 1549 1550 1551 1552 1552 1552 1553 1554 1555 1556 1556 1555 1553 1551 1549 1546 1544 1542 1539 1536 1533 1530 1526 1522 1518 1514 1510 1506 1503 1499 1496
1566 1568 1567 1564 1563 1565 1564 1556 1541 1537 1537 1535 1536 1536 1536 1536 1538 1540 1542 1543 1543 1544 1544 1545 1546 1547 1549 1550 1551 1550 1548 1546 1544 1542 1540 1537 1535 1532 1529 1525 1521 1518 1514 1510 1507 1503 1498 1495 1493
1564 1566 1565 1565 1563 1563 1565 1555 1539 1531 1531 1530 1529 1529 1529 1530 1530 1532 1534 1535 1536 1536 1536 1537 1539 1540 1542 1544 1545 1544 1543 1541 1539 1537 1535 1533 1530 1527 1524 1520 1517 1513 1510 1506 1503 1499 1495 1491 1488
1566 1562 1562 1564 1568 1572 1566 1570 1541 1531 1529 1525 1522 1522 1521 1522 1524 1525 1527 1527 1527 1527 1529 1530 1532 1534 1536 1537 1538 1538 1537 1536 1534 1532 1530 1528 1526 1523 1519 1516 1512 1509 1505 1502 1498 1495 1491 1487 1483
1560 1560 1562 1564 1567 1571 1567 1569 1544 1531 1528 1519 1514 1513 1514 1515 1517 1518 1519 1519 1520 1522 1522 1524 1525 1527 1529 1530 1531 1531 1531 1530 1528 1526 1525 1523 1521 1518 1515 1511 1508 1504 1500 1497 1493 1490 1486 1483 1479
1559 1562 1564 1570 1573 1574 1562 1567 1549 1530 1519 1511 1506 1506 1507 1509 1511 1512 1513 1514 1514 1515 1515 1516 1518 1519 1521 1523 1524 1524 1524 1524 1522 1521 1519 1518 1515 1513 1509 1506 1502 1499 1495 1492 1488 1484 1480 1477 1473
1561 1569 1576 1572 1577 1569 1553 1555 1535 1510 1505 1501 1499 1500 1501 1503 1504 1505 1506 1506 1506 1506 1507 1508 1510 1511 1513 1515 1516 1517 1518 1517 1516 1515 1513 1512 1510 1507 1504 1501 1497 1493 1490 1486 1482 1478 1474 1471 1467
1563 1565 1575 1576 1576 1567 1550 1547 1520 1501 1497 1496 1496 1496 1497 1498 1498 1499 1499 1499 1499 1499 1500 1500 1501 1503 1505 1507 1509 1511 1511 1510 1509 1508 1507 1506 1504 1501 1498 1495 1491 1488 1484 1480 1476 1472 1468 1464 1460
1557 1563 1561 1570 1570 1571 1555 1538 1517 1496 1494 1492 1492 1492 1491 1492 1492 1492 1493 1493 1493 1493 1493 1493 1494 1496 1498 1500 1502 1503 1504 1503 1503 1502 1501 1500 1498 1495 1492 1489 1485 1482 1478 1475 1471 1466 1462 1458 1453
1554 1557 1566 1569 1571 1571 1556 1542 1522 1498 1494 1491 1489 1486 1485 1486 1486 1486 1486 1486 1486 1486 1487 1487 1487 1489 1491 1493 1495 1496 1497 1496 1496 1495 1495 1494 1492 1489 1487 1483 1480 1476 1473 1469 1465 1460 1456 1451 1447
1556 1557 1557 1563 1566 1568 1561 1531 1502 1495 1489 1487 1483 1480 1479 1480 1480 1480 1480 1480 1480 1480 1480 1480 1480 1482 1483 1485 1487 1489 1490 1490 1489 1489 1489 1488 1486 1484 1481 1477 1474 1470 1466 1463 1458 1454 1450 1445 1441
1548 1548 1554 1560 1557 1559 1560 1523 1492 1489 1484 1482 1479 1476 1476 1476 1476 1475 1475 1474 1473 1472 1472 1472 1472 1473 1475 1478 1480 1481 1482 1483 1482 1483 1483 1482 1480 1478 1475 1472 1468 1464 1460 1456 1452 1448 1443 1439 1434